Location: B?dargowo
(53.3916°N, 14.4413°E)
Time: 04:25:29
(UTC+00:00)

Cosmos 1570 Rocket - Pass Details

Date: 05 February 2023
Orbit: 762 x 787 km, 74.1° (Epoch: 24 March)

Event Time Altitude Azimuth Distance (km) Brightness Sun altitude
Rises 17:38:30 0° 335° (NNW) 3,295 7.5 -16.0°
Reaches altitude 10° 17:41:01 10° 341° (NNW) 2,362 6.7 -16.3°
Maximum altitude 17:46:11 46° 55° (NE) 1,050 4.3 -17.1°
Enters shadow 17:48:48 26° 114° (ESE) 1,495 5.0 -17.5°
